Lincoln County, Oregon, United States
Lat: 44.65N, Lon: 123.85W
Wx Zone: ORZ004
Local Info
Past Weather Observations for Yesterday

NOTE: This archive is for the closest National Weather Service station to Lincoln County. Information may differ from the station used for current weather conditions.

Click here for Long-term Archive

Time Weather Temperature Dewpoint Humidity Pressure Winds Precip Visibility
23:55
Overcast
57°F / 14°C 55°F / 13°C 94% 29.95 in
(1014 mb)
S 15 mph
(S 24 kph)
- 10SM
23:35
Overcast
57°F / 14°C 55°F / 13°C 94% 29.95 in
(1014 mb)
S 13.8 mph
(S 22 kph)
- 10SM
23:15
Overcast
57°F / 14°C 55°F / 13°C 94% 29.95 in
(1014 mb)
S 13.8 mph
(S 22 kph)
- 10SM
22:55
Overcast
57°F / 14°C 55°F / 13°C 94% 29.95 in
(1014 mb)
S 15 mph
(S 24 kph)
- 7SM
22:35
Overcast
Fog And Mist
57°F / 14°C 55°F / 13°C 94% 29.95 in
(1014 mb)
SSE 16.1 mph
(SSE 26 kph)
- 5SM
22:15
Overcast
57°F / 14°C 55°F / 13°C 94% 29.95 in
(1014 mb)
SSE 15 mph
(SSE 24 kph)
- 7SM
21:55
Overcast
Fog And Mist
57°F / 14°C 55°F / 13°C 94% 29.92 in
(1013 mb)
SSE 13.8 mph
(SSE 22 kph)
- 5SM
21:35
Overcast
Fog And Mist
57°F / 14°C 55°F / 13°C 94% 29.92 in
(1013 mb)
S 15 mph
(S 24 kph)
- 2 1/2SM
21:15
Overcast
Fog And Mist
57°F / 14°C 55°F / 13°C 94% 29.92 in
(1013 mb)
SSE 15 mph
(SSE 24 kph)
- 1 1/2SM
20:55
Overcast
Fog And Mist
57°F / 14°C 55°F / 13°C 94% 29.92 in
(1013 mb)
SSE 15 mph
(SSE 24 kph)
- 1 3/4SM
20:35
Overcast
Fog And Mist
57°F / 14°C 55°F / 13°C 94% 29.92 in
(1013 mb)
SSE 17.3 mph
(SSE 28 kph)
- 1 3/4SM
20:15
Overcast
Fog And Mist
55°F / 13°C 55°F / 13°C 100% 29.92 in
(1013 mb)
SSE 16.1 mph
(SSE 26 kph)
- 1 1/4SM
19:55
Overcast
Fog And Mist
55°F / 13°C 55°F / 13°C 100% 29.92 in
(1013 mb)
S 16.1 mph
(S 26 kph)
- 1 1/4SM
19:35
Overcast
Fog And Mist
55°F / 13°C 54°F / 12°C 94% 29.92 in
(1013 mb)
SSE 18.4 mph
(SSE 30 kph)
- 1 1/4SM
19:15
Overcast
55°F / 13°C 54°F / 12°C 94% 29.92 in
(1013 mb)
SSE 17.3 mph
(SSE 28 kph)
- 7SM
18:55
Mostly Cloudy
57°F / 14°C 55°F / 13°C 94% 29.89 in
(1012 mb)
S 11.5 mph
(S 19 kph)
- 10SM
18:35
Clear
59°F / 15°C 55°F / 13°C 88% 29.89 in
(1012 mb)
S 13.8 mph
(S 22 kph)
- 10SM
18:15
Clear
59°F / 15°C 55°F / 13°C 88% 29.89 in
(1012 mb)
SSE 15 mph
(SSE 24 kph)
- 10SM
17:55
Clear
61°F / 16°C 55°F / 13°C 83% 29.89 in
(1012 mb)
SSE 15 mph
(SSE 24 kph)
- 10SM
17:35
Clear
63°F / 17°C 55°F / 13°C 77% 29.89 in
(1012 mb)
SSE 15 mph
(SSE 24 kph)
- 7SM
17:15
Clear
Hazy
61°F / 16°C 55°F / 13°C 83% 29.86 in
(1011 mb)
SW 15 mph
(SW 24 kph)
- 5SM
16:55
Clear
Hazy
63°F / 17°C 55°F / 13°C 77% 29.86 in
(1011 mb)
SW 5.8 mph
(SW 9 kph)
- 5SM
16:35
Clear
64°F / 18°C 55°F / 13°C 73% 29.86 in
(1011 mb)
SSW 4.6 mph
(SSW 7 kph)
- 7SM
16:15
Clear
66°F / 19°C 55°F / 13°C 68% 29.83 in
(1010 mb)
NNW 6.9 mph
(NNW 11 kph)
- 10SM
15:55
Clear
68°F / 20°C 55°F / 13°C 64% 29.86 in
(1011 mb)
NW 5.8 mph
(NW 9 kph)
- 7SM
15:35
Clear
70°F / 21°C 55°F / 13°C 60% 29.83 in
(1010 mb)
NNW 9.2 mph
(NNW 15 kph)
- 7SM
15:15
Clear
70°F / 21°C 55°F / 13°C 60% 29.86 in
(1011 mb)
NNW 9.2 mph
(NNW 15 kph)
- 7SM
14:55
Clear
70°F / 21°C 55°F / 13°C 60% 29.86 in
(1011 mb)
NNW 5.8 mph
(NNW 9 kph)
- 7SM
14:35
Clear
70°F / 21°C 55°F / 13°C 60% 29.86 in
(1011 mb)
N 8.1 mph
(N 13 kph)
- 7SM
14:15
Clear
72°F / 22°C 57°F / 14°C 61% 29.86 in
(1011 mb)
NW 5.8 mph
(NW 9 kph)
- 7SM
13:55
Clear
72°F / 22°C 57°F / 14°C 61% 29.86 in
(1011 mb)
N 6.9 mph
(N 11 kph)
- 7SM
13:35
Clear
72°F / 22°C 57°F / 14°C 61% 29.89 in
(1012 mb)
NNW 10.4 mph
(NNW 17 kph)
- 10SM
13:15
Clear
72°F / 22°C 57°F / 14°C 61% 29.89 in
(1012 mb)
NNW 12.7 mph
(NNW 20 kph)
- 10SM
12:55
Clear
72°F / 22°C 59°F / 15°C 65% 29.89 in
(1012 mb)
NNW 11.5 mph
(NNW 19 kph)
- 7SM
12:35
Clear
72°F / 22°C 59°F / 15°C 65% 29.89 in
(1012 mb)
NNW 11.5 mph
(NNW 19 kph)
- 7SM
12:15
Clear
73°F / 23°C 59°F / 15°C 61% 29.89 in
(1012 mb)
NNW 10.4 mph
(NNW 17 kph)
- 7SM
11:55
Clear
72°F / 22°C 59°F / 15°C 65% 29.92 in
(1013 mb)
NNW 9.2 mph
(NNW 15 kph)
- 7SM
11:35
Clear
72°F / 22°C 59°F / 15°C 65% 29.92 in
(1013 mb)
NNW 10.4 mph
(NNW 17 kph)
- 7SM
11:15
Clear
Hazy
72°F / 22°C 59°F / 15°C 65% 29.92 in
(1013 mb)
NNW 10.4 mph
(NNW 17 kph)
- 5SM
10:55
Clear
Hazy
70°F / 21°C 59°F / 15°C 69% 29.92 in
(1013 mb)
NNW 8.1 mph
(NNW 13 kph)
- 5SM
10:35
Clear
Hazy
70°F / 21°C 59°F / 15°C 69% 29.95 in
(1014 mb)
NNW 8.1 mph
(NNW 13 kph)
- 5SM
10:15
Clear
Hazy
68°F / 20°C 59°F / 15°C 73% 29.95 in
(1014 mb)
NNW 9.2 mph
(NNW 15 kph)
- 4SM
09:55
Clear
Hazy
66°F / 19°C 57°F / 14°C 73% 29.95 in
(1014 mb)
NNW 6.9 mph
(NNW 11 kph)
- 4SM
09:35
Clear
Hazy
64°F / 18°C 57°F / 14°C 78% 29.95 in
(1014 mb)
NNW 8.1 mph
(NNW 13 kph)
- 4SM
09:15
Clear
Hazy
64°F / 18°C 57°F / 14°C 78% 29.95 in
(1014 mb)
N 6.9 mph
(N 11 kph)
- 3SM
08:55
Clear
Hazy
64°F / 18°C 57°F / 14°C 78% 29.98 in
(1015 mb)
NNW 5.8 mph
(NNW 9 kph)
- 2 1/2SM
08:35
Clear
Hazy
66°F / 19°C 59°F / 15°C 78% 29.98 in
(1015 mb)
ENE 6.9 mph
(ENE 11 kph)
- 3SM
08:15
Clear
66°F / 19°C 59°F / 15°C 78% 29.98 in
(1015 mb)
NE 4.6 mph
(NE 7 kph)
- 10SM
07:55
Clear
63°F / 17°C 61°F / 16°C 94% 29.98 in
(1015 mb)
NE 5.8 mph
(NE 9 kph)
- 10SM
07:35
Clear
Fog And Mist
61°F / 16°C 61°F / 16°C 100% 29.98 in
(1015 mb)
NE 6.9 mph
(NE 11 kph)
- 5SM
07:15
Obscured
Fog And Mist
55°F / 13°C 54°F / 12°C 94% 29.98 in
(1015 mb)
NNW 3.5 mph
(NNW 6 kph)
- 1 3/4SM
06:55
Clear
Fog And Mist
54°F / 12°C 54°F / 12°C 100% 29.98 in
(1015 mb)
N 3.5 mph
(N 6 kph)
- 2 1/2SM
06:35
Clear
55°F / 13°C 55°F / 13°C 100% 29.98 in
(1015 mb)
NE 5.8 mph
(NE 9 kph)
- 10SM
06:15
Clear
Fog And Mist
52°F / 11°C 52°F / 11°C 100% 29.98 in
(1015 mb)
NE 6.9 mph
(NE 11 kph)
- 2 1/2SM
05:55
Obscured
Fog
50°F / 10°C 50°F / 10°C 100% 29.98 in
(1015 mb)
Calm - 1/2SM
05:35
Obscured
Fog
52°F / 11°C 52°F / 11°C 100% 29.98 in
(1015 mb)
Calm - 1/2SM
05:15
Clear
Fog And Mist
52°F / 11°C 52°F / 11°C 100% 29.98 in
(1015 mb)
NNW 3.5 mph
(NNW 6 kph)
- 5SM
04:55
Obscured
Fog And Mist
52°F / 11°C 52°F / 11°C 100% 29.98 in
(1015 mb)
Calm - 3/4SM
04:35
Clear
Fog And Mist
52°F / 11°C 52°F / 11°C 100% 30.01 in
(1016 mb)
Calm - 3SM
04:15
Obscured
Fog And Mist
52°F / 11°C 52°F / 11°C 100% 30.01 in
(1016 mb)
Calm - 3/4SM
03:55
Clear
Fog And Mist
52°F / 11°C 52°F / 11°C 100% 30.01 in
(1016 mb)
Calm - 3SM
03:35
Clear
54°F / 12°C 52°F / 11°C 94% 30.01 in
(1016 mb)
Calm - 7SM
03:15
Clear
Fog And Mist
54°F / 12°C 54°F / 12°C 100% 30.01 in
(1016 mb)
Calm - 2 1/2SM
02:55
Clear
52°F / 11°C 52°F / 11°C 100% 30.01 in
(1016 mb)
Calm - 7SM
02:35
Clear
54°F / 12°C 54°F / 12°C 100% 30.04 in
(1017 mb)
NE 3.5 mph
(NE 6 kph)
- 10SM
02:15
Clear
Fog And Mist
52°F / 11°C 52°F / 11°C 100% 30.04 in
(1017 mb)
NE 3.5 mph
(NE 6 kph)
- 4SM
01:55
Clear
Fog And Mist
54°F / 12°C 54°F / 12°C 100% 30.04 in
(1017 mb)
N 3.5 mph
(N 6 kph)
- 4SM
01:35
Clear
54°F / 12°C 54°F / 12°C 100% 30.04 in
(1017 mb)
Calm - 10SM
01:15
Clear
54°F / 12°C 54°F / 12°C 100% 30.04 in
(1017 mb)
Calm - 10SM
00:55
Clear
Fog And Mist
54°F / 12°C 52°F / 11°C 94% 30.04 in
(1017 mb)
Calm - 2 1/2SM
00:35
Fog And Mist
54°F / 12°C 54°F / 12°C 100% 30.04 in
(1017 mb)
Calm - 2 1/2SM
00:15
Clear
Fog And Mist
54°F / 12°C 54°F / 12°C 100% 30.04 in
(1017 mb)
N 4.6 mph
(N 7 kph)
- 2SM
Time Weather Temperature Dewpoint Humidity Pressure Winds Precip Visibility


Weather for websites

WeatherForYou.com, LLC is not responsible for any damages or problems caused by this service. Current weather conditions are obtained from the closest station including government and personal stations which may have varying degrees of accuracy. Weather forecasts are derived from the NOAA NDFD. Like all things, this site belongs to Jesus Christ... He just trusts me to maintain it. If you have any questions or comments email webmaster@weatherforyou.com

Copyright © 2014, WeatherForYou.com LLC. All rights reserved.